[[{"header":{"parameterUnit":"m.s-1","parameterCategory":1,"la1":30.2991,"la2":30.254,"lo1":-89.0895,"lo2":-89.0444,"dy":0.0017,"dx":0.0017,"nx":28,"ny":28,"refTime":"2024-07-04T03:00:00:Z","depth":0,"parameterNumber":2,"parameterNumberName":"U-component_of_WINDS"},"data":[0,0,0,0,0,0,0,0,0,0,0,0,0,0,0,0,0,0,0,0,0,0,0,0,0,0,0,0,0,0,0,0,0,0,0,0,0,0,0,0,0,0,0,0,0,0,0,0,0,0,0,0,0,0,0,0,0,0,1.492,1.4921,0,1.5034,1.5036,1.5037,1.5064,1.5063,1.5062,1.5061,1.518,1.5184,1.5188,0,0,0,0,0,0,0,0,0,0,0,0,0,1.4728,1.4732,1.492,1.4922,1.4923,1.5034,1.5036,1.5037,1.5064,1.5063,1.5062,1.5061,1.5179,1.5184,1.5188,0,0,0,0,0,0,0,0,0,0,0,0,0,1.4824,1.4733,1.492,1.495,1.4953,1.5034,1.5036,1.5038,1.5064,1.5063,1.5062,1.5061,1.5177,1.5183,1.5189,1.5248,0,0,1.5207,1.5209,0,0,0,0,0,0,0,0,1.4819,1.4831,1.4944,1.4948,1.4952,1.5034,1.5012,1.5108,1.5064,1.5022,1.5061,1.506,1.5133,1.5142,1.5166,1.5254,1.5259,1.5207,1.5211,1.5213,1.5215,0,0,0,0,0,0,0,1.4812,1.4826,1.4965,1.4945,1.4951,1.4958,1.4971,1.503,1.5083,1.5026,1.5028,1.5041,1.5135,1.516,1.5169,1.5261,1.5207,1.5212,1.5216,1.5218,1.5405,1.5406,0,0,0,0,0,0,1.48,1.4821,1.4962,1.4969,1.4881,1.4963,1.4976,1.5009,1.5082,1.5092,1.5042,1.5042,1.5151,1.5162,1.5173,1.5248,1.5213,1.5219,1.5222,1.5404,1.5405,1.5407,0,0,0,0,0,0,1.4795,1.4812,1.4957,1.4895,1.4914,1.4967,1.5003,1.5012,1.5037,1.5094,1.5104,1.5058,1.515,1.5165,1.523,1.5253,1.5221,1.5227,1.5402,1.5404,1.5406,1.5398,0,0,0,0,0,0,1.479,1.481,1.4832,1.4896,1.4918,1.501,1.5005,1.5015,1.5047,1.5048,1.5112,1.5122,1.5151,1.5221,1.5235,1.526,1.5231,1.54,1.5403,1.5405,1.5396,1.54,1.5402,0,0,0,0,0,1.4783,1.4826,1.4833,1.485,1.4946,1.5012,1.5024,1.5056,1.5049,1.5072,1.5109,1.512,1.5248,1.5227,1.5244,1.5271,1.5399,1.5402,1.5405,1.5395,1.5399,1.5402,0,0,0,0,0,0,1.4764,1.4834,1.4844,1.4908,1.4954,1.5016,1.5046,1.5059,1.5108,1.5107,1.5146,1.516,1.5222,1.5253,1.5229,1.5333,1.5323,1.533,1.531,1.5314,1.5317,1.5308,1.5236,0,0,0,0,0,1.4767,1.4814,1.4873,1.4924,1.4947,1.4993,1.5022,1.5043,1.5092,1.5112,1.5153,1.5201,1.5253,1.5285,1.5336,1.5402,1.5417,1.5429,1.5432,1.5434,1.5439,1.5477,1.5483,1.5418,1.5418,1.5418,0,0,1.4774,1.4819,1.4845,1.4922,1.4959,1.5008,1.5009,1.5059,1.5096,1.512,1.5183,1.5215,1.5272,1.5337,1.5368,1.5365,1.5461,1.5438,1.5439,1.5443,1.5481,1.5487,1.5493,1.542,1.542,1.5419,0,0,1.4811,1.485,1.4897,1.4935,1.4992,1.5023,1.5034,1.5096,1.5118,1.5182,1.5202,1.5246,1.5334,1.5373,1.5404,1.546,1.5471,1.5475,1.549,1.5527,1.5532,1.5537,1.5556,1.5563,1.548,1.548,1.548,0,1.4813,1.4885,1.4919,1.4969,1.5003,1.5027,1.5076,1.5112,1.5183,1.5206,1.5201,1.5312,1.5352,1.5427,1.5441,1.5466,1.5481,1.5467,1.5529,1.5534,1.5539,1.5558,1.5565,1.548,1.548,1.548,1.548,0,1.4885,1.4935,1.4966,1.5034,1.5072,1.5121,1.5163,1.5197,1.5216,1.5247,1.5313,1.5362,1.5423,1.5443,1.5461,1.5522,1.5518,1.5521,1.5512,1.5544,1.5563,1.5571,1.548,1.548,1.548,1.548,0,0,1.491,1.4998,1.5009,1.5041,1.5107,1.5147,1.5198,1.5258,1.5286,1.5336,1.538,1.5454,1.5458,1.5493,1.5517,1.555,1.559,1.5549,1.555,1.5554,1.5661,1.5657,1.5665,1.56,1.5601,1.5602,1.5656,0,1.4955,1.5046,1.508,1.5155,1.5202,1.5228,1.5273,1.5319,1.5351,1.5397,1.5432,1.5484,1.5484,1.5506,1.554,1.5578,1.5612,1.5575,1.5641,1.5643,1.5625,1.5675,1.5672,1.5719,1.5663,1.5665,1.5666,0,1.5019,1.5069,1.5149,1.5211,1.5232,1.5271,1.5329,1.5373,1.5427,1.5448,1.5489,1.5511,1.5567,1.5555,1.5633,1.5607,1.5637,1.566,1.5663,1.5669,1.5655,1.5682,1.5735,1.5742,1.5677,1.5676,1.5676,0,1.5029,1.5116,1.5176,1.5202,1.5276,1.5304,1.5336,1.5389,1.5423,1.5474,1.5497,1.5555,1.5586,1.563,1.5668,1.5656,1.5743,1.5734,1.5762,1.5761,1.5778,1.5776,1.5835,1.5798,1.5798,1.5798,1.5798,0,1.5075,1.5122,1.5182,1.5218,1.5273,1.5312,1.5366,1.54,1.5447,1.5491,1.5518,1.5559,1.5606,1.5654,1.5684,1.5744,1.5759,1.5777,1.5785,1.5774,1.5772,1.5793,1.5791,1.58,1.58,1.5799,1.5799,0,1.5094,1.5136,1.5202,1.5267,1.5285,1.5323,1.5379,1.5416,1.545,1.5506,1.5521,1.5574,1.5632,1.5675,1.5749,1.577,1.5834,1.5842,1.5815,1.5819,1.5844,1.584,1.5918,1.5931,1.5886,1.5886,1.5886,0,1.512,1.5157,1.5227,1.5259,1.5291,1.5341,1.5377,1.5418,1.5454,1.5519,1.5548,1.5608,1.5658,1.5749,1.5795,1.5853,1.5862,1.5885,1.587,1.5859,1.5861,1.5858,1.5862,1.5886,1.5887,1.5887,1.5887,0,1.5161,1.518,1.523,1.5288,1.5329,1.5376,1.5424,1.5449,1.5499,1.5538,1.5597,1.5636,1.5713,1.5772,1.5835,1.5869,1.5887,1.5892,1.5901,1.589,1.5873,1.5883,1.582,1.5889,1.5889,1.5889,1.5889,1.5889,1.5184,1.5219,1.5274,1.5329,1.537,1.5414,1.5453,1.5492,1.5542,1.5607,1.5629,1.5691,1.5746,1.5832,1.5867,1.5917,1.5916,1.593,1.5933,1.5935,1.5934,1.5867,1.5928,1.5928,1.5928,1.5928,1.5928,0,1.5226,1.5263,1.5314,1.538,1.5424,1.5438,1.5492,1.5528,1.5581,1.5631,1.568,1.5749,1.5807,1.5858,1.5919,1.5949,1.5959,1.5963,1.5961,1.5969,1.5932,1.5917,1.5955,1.5955,1.5955,1.5955,1.5955,1.5955,1.5253,1.5313,1.5339,1.542,1.5458,1.5518,1.5548,1.559,1.563,1.5706,1.5754,1.5787,1.5838,1.5903,1.5958,1.5972,1.5992,1.5995,1.6011,1.5975,1.5971,1.5968,1.5955,1.5999,1.6,1.6044,1.6044,1.6044]},{"header":{"parameterUnit":"m.s-1","parameterCategory":1,"la1":30.2991,"la2":30.254,"lo1":-89.0895,"lo2":-89.0444,"dy":0.0017,"dx":0.0017,"nx":28,"ny":28,"refTime":"2024-07-04T03:00:00:Z","depth":0,"parameterNumber":3,"parameterNumberName":"V-component_of_WINDS"},"data":[0,0,0,0,0,0,0,0,0,0,0,0,0,0,0,0,0,0,0,0,0,0,0,0,0,0,0,0,0,0,0,0,0,0,0,0,0,0,0,0,0,0,0,0,0,0,0,0,0,0,0,0,0,0,0,0,0,0,5.3046,5.3047,0,5.3184,5.3186,5.3187,5.318,5.3179,5.3177,5.3175,5.3305,5.331,5.3315,0,0,0,0,0,0,0,0,0,0,0,0,0,5.2764,5.2769,5.3046,5.3048,5.3049,5.3184,5.3186,5.3188,5.3181,5.3178,5.3176,5.3174,5.3303,5.331,5.3316,0,0,0,0,0,0,0,0,0,0,0,0,0,5.2893,5.2771,5.3045,5.3062,5.3065,5.3184,5.3186,5.3188,5.3181,5.3178,5.3175,5.3173,5.3301,5.3309,5.3317,5.3424,0,0,5.3341,5.3344,0,0,0,0,0,0,0,0,5.2885,5.2903,5.3058,5.3061,5.3065,5.3162,5.3134,5.3267,5.3182,5.3137,5.3175,5.3171,5.3259,5.327,5.3302,5.343,5.3435,5.3342,5.3346,5.335,5.3352,0,0,0,0,0,0,0,5.2876,5.2897,5.31,5.306,5.3065,5.3059,5.3074,5.3159,5.3212,5.3141,5.3141,5.3158,5.326,5.3295,5.3305,5.3437,5.3341,5.3348,5.3353,5.3356,5.3658,5.3662,0,0,0,0,0,0,5.2865,5.2889,5.3096,5.3104,5.2967,5.3067,5.3084,5.3134,5.3211,5.3221,5.316,5.3157,5.3283,5.3296,5.331,5.344,5.335,5.3357,5.3362,5.3655,5.3659,5.3663,0,0,0,0,0,0,5.2859,5.2884,5.309,5.2997,5.3023,5.3075,5.3131,5.3138,5.3173,5.3226,5.3234,5.3186,5.3281,5.3299,5.3396,5.3444,5.3361,5.3368,5.3651,5.3656,5.3661,5.3702,0,0,0,0,0,0,5.2851,5.2882,5.2926,5.2998,5.3028,5.3178,5.3134,5.3143,5.3188,5.3185,5.3253,5.3261,5.328,5.3384,5.3404,5.3454,5.3374,5.3647,5.3654,5.3659,5.3696,5.3707,5.3717,0,0,0,0,0,5.2841,5.2929,5.2928,5.2953,5.3085,5.3181,5.3197,5.322,5.3192,5.3234,5.3269,5.3259,5.3436,5.3394,5.3416,5.3469,5.3644,5.3652,5.3659,5.3691,5.3705,5.3717,0,0,0,0,0,0,5.2857,5.2939,5.2939,5.3054,5.3111,5.3179,5.3234,5.3234,5.3297,5.3292,5.3314,5.3329,5.3427,5.3457,5.341,5.3576,5.3536,5.3548,5.3553,5.3567,5.3577,5.3567,5.3381,0,0,0,0,0,5.2875,5.295,5.3016,5.311,5.3139,5.3182,5.3225,5.3238,5.3296,5.3319,5.336,5.3414,5.3482,5.3526,5.3591,5.37,5.3714,5.3747,5.3758,5.3766,5.3776,5.3835,5.385,5.3687,5.3687,5.3687,0,0,5.291,5.2964,5.3009,5.3115,5.3161,5.3234,5.3202,5.3281,5.3335,5.333,5.3426,5.3458,5.3519,5.3623,5.367,5.3651,5.3824,5.3775,5.3782,5.3787,5.3844,5.386,5.3873,5.3692,5.3691,5.369,0,0,5.3013,5.3062,5.3147,5.3194,5.3266,5.3293,5.3313,5.3383,5.3405,5.3502,5.35,5.3562,5.3678,5.3722,5.376,5.3879,5.3872,5.3899,5.3953,5.4011,5.4023,5.4035,5.4077,5.4092,5.3909,5.3909,5.3909,0,5.3047,5.3162,5.3189,5.327,5.3315,5.3318,5.3402,5.3445,5.3532,5.3561,5.354,5.3686,5.3727,5.3841,5.3871,5.3901,5.3923,5.3892,5.402,5.4032,5.4043,5.4083,5.4099,5.3912,5.3912,5.3912,5.3911,0,5.32,5.3279,5.3338,5.3427,5.3479,5.356,5.3597,5.3645,5.3653,5.3682,5.378,5.383,5.3905,5.3933,5.394,5.4048,5.4034,5.4016,5.3975,5.4061,5.4099,5.4115,5.3916,5.3915,5.3914,5.3914,0,0,5.3316,5.342,5.3441,5.3482,5.3561,5.362,5.37,5.3778,5.3819,5.3878,5.3944,5.4043,5.4028,5.407,5.4082,5.4133,5.4223,5.4108,5.411,5.4128,5.4343,5.4356,5.4374,5.4219,5.4222,5.4225,5.4338,0,5.3427,5.3575,5.3601,5.3728,5.3801,5.3804,5.3873,5.3927,5.3956,5.4019,5.4049,5.4119,5.4093,5.4119,5.4169,5.4202,5.4267,5.4194,5.4278,5.4281,5.4263,5.4394,5.4408,5.4513,5.4353,5.4356,5.4358,0,5.3576,5.3644,5.378,5.3849,5.388,5.3943,5.4016,5.4077,5.4137,5.4154,5.4203,5.4209,5.4289,5.4245,5.4354,5.4304,5.434,5.4361,5.4365,5.4374,5.4324,5.4405,5.4547,5.4562,5.4381,5.4379,5.4378,0,5.3646,5.3771,5.3869,5.3903,5.3987,5.4031,5.4066,5.4124,5.4169,5.4231,5.426,5.4329,5.4367,5.4418,5.4442,5.4408,5.4549,5.4508,5.4563,5.4563,5.4593,5.459,5.4741,5.4616,5.4616,5.4615,5.4615,0,5.3767,5.385,5.3902,5.3962,5.4054,5.4082,5.417,5.4205,5.4256,5.432,5.4325,5.4383,5.4412,5.4474,5.4492,5.4579,5.4595,5.4609,5.4613,5.4609,5.4607,5.4633,5.4626,5.462,5.4619,5.4618,5.4617,0,5.3861,5.39,5.4007,5.4078,5.4098,5.4162,5.4221,5.4278,5.4307,5.4387,5.4407,5.4452,5.4525,5.4554,5.4642,5.4655,5.4755,5.4753,5.4736,5.4737,5.4791,5.4786,5.4964,5.4988,5.4847,5.4848,5.4849,0,5.3936,5.4001,5.408,5.4126,5.4164,5.4236,5.4283,5.4312,5.436,5.4433,5.448,5.4555,5.4616,5.4732,5.477,5.4837,5.4836,5.4894,5.4846,5.484,5.4837,5.4833,5.4839,5.4902,5.4904,5.4905,5.4906,0,5.4064,5.4081,5.415,5.4227,5.4284,5.4345,5.4403,5.4439,5.4476,5.4529,5.4607,5.4654,5.4746,5.4819,5.4889,5.4921,5.4919,5.4921,5.4937,5.4934,5.4922,5.4929,5.476,5.4917,5.4916,5.4915,5.4914,5.4914,5.4151,5.4208,5.4274,5.4351,5.4399,5.4454,5.4511,5.4549,5.4615,5.4696,5.4707,5.479,5.4846,5.494,5.4976,5.5038,5.5023,5.5046,5.5052,5.5058,5.5062,5.4912,5.505,5.505,5.505,5.505,5.505,0,5.4279,5.4322,5.4393,5.4477,5.4537,5.4534,5.4599,5.4648,5.4722,5.4777,5.4838,5.4926,5.4997,5.5041,5.5111,5.5152,5.5153,5.517,5.5167,5.5174,5.5071,5.505,5.5168,5.5168,5.5168,5.5168,5.5168,5.5168,5.4353,5.445,5.4474,5.4594,5.4635,5.472,5.4757,5.4806,5.4851,5.495,5.5011,5.504,5.509,5.5164,5.5228,5.5238,5.5263,5.5282,5.5291,5.5194,5.5181,5.517,5.515,5.5287,5.5287,5.5388,5.5389,5.539]}]]